Météo par heure à Kitaeva

Ce jour, 3 Mars, Mercredi

Heure Température Précipitation Vent Pression Humidité
00:00 -4°C° 0 mm 5 m/s 744 mmHg 91%
01:00 -4°C° 0 mm 5 m/s 744 mmHg 89%
02:00 -5°C° 0 mm 5 m/s 745 mmHg 87%
03:00 -5°C° 0 mm 5 m/s 745 mmHg 87%
04:00 -6°C° 0 mm 5 m/s 745 mmHg 87%
05:00 -6°C° 0 mm 5 m/s 745 mmHg 87%
06:00 -6°C° 0 mm 5 m/s 746 mmHg 88%
07:00 -5°C° 0 mm 4 m/s 747 mmHg 89%
08:00 -5°C° 0 mm 4 m/s 747 mmHg 89%
09:00 -4°C° 0 mm 4 m/s 747 mmHg 87%
10:00 -4°C° 0 mm 5 m/s 747 mmHg 85%
11:00 -2°C° 0 mm 5 m/s 747 mmHg 83%
12:00 -2°C° 0 mm 5 m/s 747 mmHg 84%
13:00 -2°C° 0 mm 5 m/s 747 mmHg 85%
14:00 -2°C° 0 mm 5 m/s 747 mmHg 86%
15:00 -2°C° 0 mm 5 m/s 746 mmHg 86%
16:00 -2°C° 0 mm 5 m/s 746 mmHg 87%
17:00 -4°C° 0 mm 5 m/s 745 mmHg 87%
18:00 -4°C° 0 mm 5 m/s 745 mmHg 87%
19:00 -4°C° 0 mm 5 m/s 745 mmHg 86%
20:00 -4°C° 0 mm 5 m/s 745 mmHg 86%
21:00 -4°C° 0 mm 5 m/s 745 mmHg 87%
22:00 -3°C° 0 mm 4 m/s 744 mmHg 88%
23:00 -3°C° 0 mm 4 m/s 744 mmHg 90%

Demain, 4 Mars, Jeudi

Heure Température Précipitation Vent Pression Humidité
00:00 -4°C° 0 mm 5 m/s 743 mmHg 90%
01:00 -4°C° 0 mm 5 m/s 743 mmHg 90%
02:00 -5°C° 0 mm 5 m/s 742 mmHg 90%
03:00 -4°C° 0 mm 6 m/s 741 mmHg 89%
04:00 -4°C° 0 mm 6 m/s 740 mmHg 88%
05:00 -4°C° 0 mm 6 m/s 740 mmHg 87%
06:00 -4°C° 0 mm 6 m/s 739 mmHg 86%
07:00 -4°C° 0 mm 6 m/s 739 mmHg 85%
08:00 -4°C° 0 mm 6 m/s 738 mmHg 84%
09:00 -3°C° 0 mm 6 m/s 738 mmHg 86%
10:00 -2°C° 0 mm 5 m/s 737 mmHg 88%
11:00 -1°C° 0 mm 5 m/s 736 mmHg 90%
12:00 -1°C° 0 mm 5 m/s 736 mmHg 91%
13:00 0°C° 0 mm 5 m/s 735 mmHg 93%
14:00 0°C° 0 mm 4 m/s 735 mmHg 94%
15:00 0°C° 0 mm 4 m/s 734 mmHg 93%
16:00 0°C° 0 mm 4 m/s 734 mmHg 93%
17:00 +1°C° 0 mm 3 m/s 733 mmHg 92%
18:00 -1°C° 0.1 mm 4 m/s 733 mmHg 94%
19:00 -1°C° 0.1 mm 4 m/s 733 mmHg 95%
20:00 -1°C° 0.1 mm 4 m/s 733 mmHg 97%
21:00 -1°C° 0.1 mm 4 m/s 733 mmHg 97%
22:00 -1°C° 0.1 mm 4 m/s 733 mmHg 97%
23:00 -1°C° 0.1 mm 4 m/s 733 mmHg 97%

Après-demain, 5 Mars, Vendredi

Heure Température Précipitation Vent Pression Humidité
00:00 -2°C° 0.2 mm 4 m/s 734 mmHg 96%
01:00 -2°C° 0.2 mm 4 m/s 734 mmHg 96%
02:00 -3°C° 0.2 mm 4 m/s 734 mmHg 95%
03:00 -4°C° 0.1 mm 4 m/s 735 mmHg 94%
04:00 -5°C° 0.1 mm 4 m/s 735 mmHg 93%
05:00 -7°C° 0.1 mm 4 m/s 736 mmHg 92%
06:00 -7°C° 0.1 mm 4 m/s 736 mmHg 92%
07:00 -7°C° 0.1 mm 4 m/s 737 mmHg 91%
08:00 -6°C° 0.1 mm 3 m/s 738 mmHg 91%
09:00 -5°C° 0 mm 3 m/s 738 mmHg 87%
10:00 -5°C° 0 mm 3 m/s 739 mmHg 84%
11:00 -3°C° 0 mm 2 m/s 739 mmHg 80%
12:00 -3°C° 0 mm 2 m/s 739 mmHg 77%
13:00 -2°C° 0 mm 2 m/s 740 mmHg 74%
14:00 -2°C° 0 mm 2 m/s 740 mmHg 71%
15:00 -1°C° 0 mm 1 m/s 740 mmHg 74%
16:00 -1°C° 0 mm 1 m/s 741 mmHg 78%
17:00 -2°C° 0 mm 1 m/s 741 mmHg 81%
18:00 -5°C° 0 mm 2 m/s 741 mmHg 84%
19:00 -5°C° 0 mm 2 m/s 742 mmHg 86%
20:00 -6°C° 0 mm 2 m/s 742 mmHg 89%
21:00 -6°C° 0 mm 2 m/s 743 mmHg 88%
22:00 -7°C° 0 mm 2 m/s 743 mmHg 88%
23:00 -6°C° 0 mm 1 m/s 743 mmHg 88%

6 Mars, Samedi

Heure Température Précipitation Vent Pression Humidité
00:00 -7°C° 0 mm 1 m/s 743 mmHg 87%
01:00 -7°C° 0 mm 1 m/s 743 mmHg 87%
02:00 -7°C° 0 mm 1 m/s 743 mmHg 87%
03:00 -7°C° 0 mm 1 m/s 743 mmHg 88%
04:00 -7°C° 0 mm 1 m/s 743 mmHg 88%
05:00 -8°C° 0 mm 0 m/s 743 mmHg 88%
06:00 -7°C° 0 mm 1 m/s 744 mmHg 88%
07:00 -7°C° 0 mm 1 m/s 744 mmHg 89%
08:00 -6°C° 0 mm 1 m/s 744 mmHg 89%
09:00 -6°C° 0.3 mm 1 m/s 744 mmHg 89%
10:00 -6°C° 0.3 mm 2 m/s 745 mmHg 89%
11:00 -6°C° 0.3 mm 2 m/s 745 mmHg 89%
12:00 -6°C° 0.2 mm 2 m/s 745 mmHg 87%
13:00 -6°C° 0.2 mm 3 m/s 745 mmHg 85%
14:00 -6°C° 0.2 mm 3 m/s 745 mmHg 83%
15:00 -7°C° 0 mm 3 m/s 745 mmHg 83%
16:00 -7°C° 0 mm 2 m/s 745 mmHg 83%
17:00 -7°C° 0 mm 2 m/s 745 mmHg 83%
18:00 -8°C° 0 mm 2 m/s 745 mmHg 85%
19:00 -8°C° 0 mm 2 m/s 745 mmHg 86%
20:00 -10°C° 0 mm 3 m/s 745 mmHg 87%
21:00 -10°C° 0 mm 3 m/s 745 mmHg 87%
22:00 -10°C° 0 mm 3 m/s 745 mmHg 87%
23:00 -10°C° 0 mm 3 m/s 745 mmHg 87%

7 Mars, Dimanche

Heure Température Précipitation Vent Pression Humidité
00:00 -11°C° 0 mm 4 m/s 744 mmHg 84%
01:00 -11°C° 0 mm 5 m/s 743 mmHg 81%
02:00 -11°C° 0 mm 6 m/s 743 mmHg 78%
03:00 -11°C° 0 mm 6 m/s 742 mmHg 77%
04:00 -11°C° 0 mm 7 m/s 741 mmHg 76%
05:00 -11°C° 0 mm 7 m/s 740 mmHg 74%
06:00 -10°C° 0 mm 8 m/s 739 mmHg 75%
07:00 -10°C° 0 mm 9 m/s 738 mmHg 76%
08:00 -10°C° 0 mm 9 m/s 737 mmHg 76%
09:00 -9°C° 0 mm 10 m/s 737 mmHg 78%
10:00 -8°C° 0 mm 10 m/s 736 mmHg 80%
11:00 -8°C° 0 mm 11 m/s 735 mmHg 82%
12:00 -7°C° 0 mm 11 m/s 734 mmHg 81%
13:00 -6°C° 0 mm 11 m/s 733 mmHg 80%
14:00 -5°C° 0 mm 10 m/s 733 mmHg 79%
15:00 -5°C° 0 mm 10 m/s 732 mmHg 81%
16:00 -5°C° 0 mm 9 m/s 732 mmHg 83%
17:00 -5°C° 0 mm 9 m/s 732 mmHg 84%
18:00 -6°C° 0.7 mm 8 m/s 732 mmHg 87%
19:00 -6°C° 0.7 mm 7 m/s 732 mmHg 89%
20:00 -6°C° 0.7 mm 5 m/s 732 mmHg 92%
21:00 -6°C° 0.2 mm 5 m/s 732 mmHg 90%
22:00 -7°C° 0.2 mm 4 m/s 732 mmHg 88%
23:00 -8°C° 0.2 mm 4 m/s 732 mmHg 87%

8 Mars, Lundi

Heure Température Précipitation Vent Pression Humidité
00:00 -8°C° 0 mm 4 m/s 732 mmHg 84%
01:00 -8°C° 0 mm 4 m/s 732 mmHg 81%
02:00 -9°C° 0 mm 4 m/s 732 mmHg 79%
03:00 -9°C° 0 mm 4 m/s 733 mmHg 79%
04:00 -10°C° 0 mm 4 m/s 733 mmHg 80%
05:00 -11°C° 0 mm 5 m/s 733 mmHg 81%
06:00 -11°C° 0 mm 5 m/s 734 mmHg 81%
07:00 -11°C° 0 mm 5 m/s 734 mmHg 81%
08:00 -11°C° 0 mm 6 m/s 735 mmHg 81%
09:00 -11°C° 0 mm 6 m/s 735 mmHg 80%
10:00 -10°C° 0 mm 6 m/s 736 mmHg 79%
11:00 -10°C° 0 mm 6 m/s 737 mmHg 78%
12:00 -10°C° 0 mm 6 m/s 737 mmHg 78%
13:00 -10°C° 0 mm 6 m/s 738 mmHg 78%
14:00 -10°C° 0 mm 6 m/s 738 mmHg 77%
15:00 -11°C° 0 mm 5 m/s 739 mmHg 79%
16:00 -11°C° 0 mm 4 m/s 739 mmHg 80%
17:00 -12°C° 0 mm 4 m/s 740 mmHg 82%
18:00 -12°C° 0 mm 4 m/s 740 mmHg 84%
19:00 -14°C° 0 mm 4 m/s 741 mmHg 86%
20:00 -13°C° 0 mm 3 m/s 742 mmHg 87%
21:00 -14°C° 0 mm 3 m/s 742 mmHg 88%
22:00 -14°C° 0 mm 3 m/s 743 mmHg 88%
23:00 -15°C° 0 mm 3 m/s 743 mmHg 88%
Voir plus

Nous avons besoin de votre consentement

Meteoprog et ses fournisseurs de services peuvent stocker et accéder à des données personnelles telles que des cookies, des identifiants d'appareils ou d'autres technologies similaires sur votre appareil et traiter ces données pour personnaliser le contenu et les publicités, ainsi que pour fournir des fonctionnalités de médias sociaux et analyser le trafic.

  • Stocker et/ou accéder à des informations sur votre appareil

    Des cookies, des identifiants d'appareils ou d'autres informations peuvent être stockés ou accessibles sur votre appareil aux fins indiquées ci-dessus.

  • Annonces et contenus personnalisés, mesure des annonces et des contenus, connaissance de l'audience et développement de produits

    Les annonces et le contenu peuvent être personnalisés en fonction d'un profil. D'autres données peuvent être ajoutées pour mieux personnaliser les annonces et le contenu. Les performances des publicités et du contenu peuvent être mesurées. Il est possible d'obtenir des informations sur le public qui a vu les publicités et le contenu. Ces données peuvent être utilisées pour développer ou améliorer l'expérience de l'utilisateur, les systèmes et les logiciels.

En cliquant sur "J'accepte", vous autorisez l'utilisation de cookies, des identifiants d'appareils, des balises web ou d'autres technologies similaires. Vos paramètres peuvent être modifiés dans le navigateur de votre appareil.

Dans certains cas, des intérêts légitimes peuvent être invoqués plutôt qu'un consentement. Vous pouvez en savoir plus à ce sujet dans notre Politique de confidentialité et de cookies.